TIGRISAT

Last updated on Sun Jun 21 2026 00:03:50 GMT+0000 (Coordinated Universal Time)

1 40043U 14033AK 26171.34979712 .00001472 00000+0 17429-3 0 9990 2 40043 97.7835 321.2886 0050483 65.0761 295.5688 14.85172276646098
UTC large
Height (km)
Speed (km/s)
/
Latitude / Longitude
Inclination (degrees)
Orbital Period (minutes)
Azimuth
Elevation
Range (km)
Doppler Factor

Next 0 passes for location: London (51.5072 / 0.1276)

No passes found over London.
TIGRISAT